カタログに戻る

SL-12 DEB

LostHEO
NORAD 43580·DEBRIS·🇷🇺 Russia

打ち上げ Mar 1, 2010 から Baikonur Cosmodrome

Loading…

次のパス (今後24時間)

TLE

古いSource: Space-Track

元期: Aug 13, 2018, 21:02 UTC

1 43580U 10007AG  18225.87640833 +.00007309 +00000-0 +26374-1 0  9997
2 43580 065.9834 149.9469 5744646 040.4471 352.8664 04.17812154002374

AllMySatでSL-12 DEBをリアルタイム追跡

Download on the App Store